COSMOS 1275 DEB

Satellite information

Favourite Embed

Satellite Type and Status

DEBRISIN ORBIT

Key statistics

Satellite COSMOS 1275 DEB at a glance.

Uptime

16042

Days in orbit

Revolutions

≈ 14.3

Per day

Orbit

LEO

Low Earth Orbit

Inclination

83.0

Latest

Satellite identification and parameters

Extended collection of information and parameters for COSMOS 1275 DEB.

Object identification

Identified? True

Debris? True

Object name: COSMOS 1275 DEB

International designator: 1981-053FX

Object number (NORAD): 13477

Object ID (CCSDS): 13477

Country: COMMONWEALTH OF INDEPENDENT STATES (CIS)

Current information (Y/N): Y

RCS size: SMALL

Orbital parameters

Period: 100.36 minutes

Inclination: 82.9911 deg

SMA: 7153.77 km

Apoapsis: 815.269 km

Periapsis: 736.002 km

RAAN: 269.4977 deg

Eccentricy: 0.0055402

Argument of periapsis: 143.0196 deg

Mean anomaly: 217.4833 deg

Mean motion: 14.34829442 rev/day

Mean motion (dot): 0.0001123 rev/day2

B* drag term: 0.0038801 1/REarth

Two-line elements (TLE)

Creation date: May 6, 2025, 3:54 a.m.

Reference frame: TEME

Reference center: EARTH

Epoch: May 5, 2025, 8:01 p.m. UTC

TLE line 0: 0 COSMOS 1275 DEB

TLE line 1: 1 13477U 81053FX 25125.83424807 .00011230 00000-0 38801-2 0 9999

TLE line 2: 2 13477 82.9911 269.4977 0055402 143.0196 217.4833 14.34829442186877

Live tracking on map

Real-time ground track for satellite COSMOS 1275 DEB.

In-orbit conjunctions

A list of the most updated potential collisions computed for object COSMOS 1275 DEB.

Target Orbit TCA Probability of collision Miss distance Type
RADARSAT SSO 2025-04-12 03:22:43 0.0001298519 199.0 (m) PAYLOAD
CZ-6A DEB SSO 2025-02-19 15:46:14 0.0001014118 433.0 (m) DEBRIS

Associated space launch

Navigation satellite providing location information for the Tsiklon-B navigation system

COSMOS 1275 DEB was lifted into orbit during the mission ‘Kosmos-3M | Parus 27’, on board a Kosmos-3M space rocket.

The launch took place on June 4, 1981, 3:41 p.m. from 132/2.

For more information about the launch, click the button.

Launch to space Kosmos-3M | Parus 27
Kosmos-3M | Parus 27

Agency: N/A

Status: Launch Successful

Launch date: June 4, 1981, 3:41 p.m. UTC

Rocket: Kosmos-3M

Launch pad: 132/2

Location: Plesetsk Cosmodrome, Russian Federation

...

Latest news about this satellite

There are no fresh news available about this satellite. Check back as we update our databases every day.


Newsletter sign-up

Weekly statistics, charts and insights to help you stay on top of the space industry.